CW9688 Weather Reports


Display with metric or nautical units.
time (UTC)temp
F
wind
direction
speed
MPH
gust
MPH
rain 1hr
in
rain 24hr
in
rain mn
in
humidity
%
barometer
mb
20220707155805 77 191 2.0 5.0 0.00 0.00 0.00 54 1019.1
20220707155304 76 149 2.0 7.0 0.00 0.00 0.00 58 1019.1
20220707154805 76 175 4.0 7.0 0.00 0.00 0.00 59 1019.1
20220707154304 75 170 2.0 5.0 0.00 0.00 0.00 59 1019.1
20220707153304 74 162 5.0 7.0 0.00 0.00 0.00 66 1019.1
20220707152804 73 167 5.0 7.0 0.00 0.00 0.00 67 1019.3
20220707152304 73 170 3.0 7.0 0.00 0.00 0.00 67 1019.2
20220707142804 68 51 2.0 5.0 0.00 0.00 0.00 80 1019.7
20220707142305 68 2 3.0 3.0 0.00 0.00 0.00 80 1019.7
20220707141804 67 5 0.0 2.0 0.00 0.00 0.00 80 1019.5
20220707134304 63 245 1.0 2.0 0.00 0.00 0.00 92 1019.5
20220707133804 63 21 1.0 2.0 0.00 0.00 0.00 93 1019.7
20220707131804 62 354 3.0 5.0 0.00 0.00 0.00 94 1019.2
20220707131304 61 346 1.0 2.0 0.00 0.00 0.00 94 1019.2
20220707130804 61 346 1.0 2.0 0.00 0.00 0.00 94 1019.2
20220707130305 60 346 2.0 3.0 0.00 0.00 0.00 94 1019.2
20220707125804 60 274 0.0 2.0 0.00 0.00 0.00 94 1019.3
20220707125305 60 274 1.0 3.0 0.00 0.00 0.00 94 1019.3
20220707124804 59 274 2.0 3.0 0.00 0.00 0.00 94 1019.3
20220707124304 59 231 1.0 2.0 0.00 0.00 0.00 94 1019.3
20220707122804 59 5 0.0 2.0 0.00 0.00 0.00 94 1019.3
20220707122304 59 4 1.0 3.0 0.00 0.00 0.00 93 1019.1
20220707121804 59 316 1.0 2.0 0.00 0.00 0.00 93 1019.0
20220707115804 59 323 1.0 2.0 0.00 0.00 0.00 93 1018.7
20220707114804 59 323 1.0 2.0 0.00 0.00 0.00 93 1018.7
20220707114304 59 323 0.0 0.0 0.00 0.00 0.00 93 1018.7
20220707113805 59 323 0.0 1.0 0.00 0.00 0.00 92 1018.7
20220707113304 59 323 0.0 1.0 0.00 0.00 0.00 92 1018.6
20220707112804 59 323 1.0 6.0 0.00 0.00 0.00 92 1018.7
20220707111804 59 306 1.0 5.0 0.00 0.00 0.00 91 1018.4
20220707110804 59 330 4.0 7.0 0.00 0.00 0.00 89 1018.4
20220707110304 59 337 2.0 5.0 0.00 0.00 0.00 89 1018.5
20220707105804 59 339 1.0 5.0 0.00 0.00 0.00 89 1018.5
20220707105304 59 334 3.0 6.0 0.00 0.00 0.00 89 1018.5
20220707104304 60 288 3.0 5.0 0.00 0.00 0.00 89 1018.7
20220707103804 60 306 1.0 6.0 0.00 0.00 0.00 89 1018.8
20220707103304 59 304 1.0 6.0 0.00 0.00 0.00 89 1018.9
20220707101805 59 306 0.0 2.0 0.00 0.00 0.00 89 1018.8
20220707100304 59 225 0.0 2.0 0.00 0.00 0.00 88 1018.4
20220707095804 60 225 0.0 0.0 0.00 0.00 0.00 88 1018.4
20220707095305 60 225 0.0 1.0 0.00 0.00 0.00 88 1018.4
20220707094804 60 225 0.0 2.0 0.00 0.00 0.00 87 1018.6
20220707094304 60 224 1.0 3.0 0.00 0.00 0.00 87 1018.6
20220707092304 60 159 0.0 0.0 0.00 0.00 0.00 85 1019.0
20220707091804 60 159 0.0 2.0 0.00 0.00 0.00 85 1019.0
20220707085304 62 159 0.0 0.0 0.00 0.00 0.00 83 1019.1
20220707084804 62 159 0.0 0.0 0.00 0.00 0.00 83 1019.1
20220707082304 63 159 0.0 2.0 0.00 0.00 0.00 82 1019.2
20220707081804 63 159 0.0 2.0 0.00 0.00 0.00 81 1019.1
20220707080804 63 159 2.0 5.0 0.00 0.00 0.00 81 1019.4
20220707075304 63 159 2.0 3.0 0.00 0.00 0.00 81 1019.2
20220707074304 64 167 1.0 3.0 0.00 0.00 0.00 83 1019.2
20220707073804 63 167 1.0 3.0 0.00 0.00 0.00 83 1019.2
20220707072304 63 167 1.0 2.0 0.00 0.00 0.00 83 1019.2
20220707071804 63 167 0.0 3.0 0.00 0.00 0.00 83 1019.1
20220707071304 63 167 0.0 3.0 0.00 0.00 0.00 83 1019.1
20220707070304 64 165 1.0 5.0 0.00 0.00 0.00 84 1018.8
20220707065804 64 155 1.0 6.0 0.00 0.00 0.00 84 1019.4
20220707063804 63 216 0.0 0.0 0.00 0.00 0.00 86 1019.3
20220707062304 63 216 0.0 0.0 0.00 0.00 0.00 86 1019.2
20220707061304 63 216 0.0 0.0 0.00 0.00 0.00 86 1019.2
20220707060304 62 216 0.0 1.0 0.00 0.00 0.00 87 1019.3
20220707055804 62 216 0.0 0.0 0.00 0.00 0.00 87 1019.5
20220707054804 62 216 0.0 0.0 0.00 0.00 0.00 86 1019.6
20220707054304 62 216 0.0 0.0 0.00 0.00 0.00 87 1019.6
20220707053804 62 216 0.0 0.0 0.00 0.00 0.00 86 1019.4
20220707052304 62 217 0.0 2.0 0.00 0.00 0.00 87 1019.3
20220707050304 63 217 0.0 0.0 0.00 0.00 0.00 86 1019.3
20220707045804 63 217 0.0 0.0 0.00 0.00 0.00 86 1019.0
20220707045304 63 217 0.0 1.0 0.00 0.00 0.00 86 1019.0
20220707040304 65 216 0.0 1.0 0.00 0.00 0.00 82 1018.6
20220707035804 65 216 1.0 3.0 0.00 0.00 0.00 82 1018.6
20220707035304 65 216 1.0 3.0 0.00 0.00 0.00 83 1018.6
20220707034804 65 217 0.0 1.0 0.00 0.00 0.00 82 1018.6
20220707033804 65 221 3.0 5.0 0.00 0.00 0.00 82 1018.6
20220707032304 65 228 2.0 3.0 0.00 0.00 0.00 81 1018.6
20220707030304 66 221 3.0 5.0 0.00 0.00 0.00 80 1019.0
20220707025804 66 207 2.0 5.0 0.00 0.00 0.00 80 1019.1
20220707024804 66 207 2.0 3.0 0.00 0.00 0.00 80 1019.1
20220707024304 66 207 1.0 3.0 0.00 0.00 0.00 81 1019.1
20220707023804 66 207 0.0 3.0 0.00 0.00 0.00 80 1019.2
20220707022804 67 162 2.0 5.0 0.00 0.00 0.00 79 1019.3
20220707021304 67 144 2.0 5.0 0.00 0.00 0.00 79 1019.1
20220707015304 67 125 1.0 5.0 0.00 0.00 0.00 77 1019.3
20220707014804 68 117 2.0 5.0 0.00 0.00 0.00 77 1019.1
20220707014304 68 90 2.0 6.0 0.00 0.00 0.00 77 1019.1
20220707012804 68 119 2.0 3.0 0.00 0.00 0.00 75 1018.0
20220707011304 67 76 1.0 3.0 0.00 0.00 0.00 75 1018.1
20220707005304 69 334 6.0 14.0 0.00 0.00 0.00 68 1019.2
20220707003804 70 340 8.0 16.0 0.00 0.00 0.00 62 1019.3
20220707003304 71 349 10.0 16.0 0.00 0.00 0.00 61 1018.7
20220707001804 72 335 7.0 13.0 0.00 0.00 0.00 59 1018.3
20220707000804 72 305 6.0 12.0 0.00 0.00 0.00 59 1018.1
20220707000303 72 339 5.0 12.0 0.00 0.00 0.00 59 1018.5
20220706235804 72 312 10.0 20.0 0.00 0.00 0.00 59 1018.5
20220706232804 74 295 7.0 14.0 0.00 0.00 0.00 61 1016.9
20220706231804 74 325 6.0 16.0 0.00 0.00 0.00 58 1016.9
20220706230304 75 335 10.0 15.0 0.00 0.00 0.00 54 1017.1
20220706225804 76 321 11.0 20.0 0.00 0.00 0.00 53 1017.2
20220706225304 76 332 9.0 14.0 0.00 0.00 0.00 52 1017.2
20220706224304 79 312 9.0 15.0 0.00 0.00 0.00 50 1017.1
20220706222304 80 332 5.0 8.0 0.00 0.00 0.00 47 1017.1
20220706221304 80 349 3.0 6.0 0.00 0.00 0.00 45 1016.9
20220706220804 80 53 2.0 6.0 0.00 0.00 0.00 46 1016.9
20220706214804 81 331 1.0 5.0 0.00 0.00 0.00 45 1016.8
20220706212804 83 105 0.0 6.0 0.00 0.00 0.00 44 1017.1
20220706212304 83 67 3.0 7.0 0.00 0.00 0.00 44 1017.1
20220706211804 83 92 2.0 9.0 0.00 0.00 0.00 46 1017.0
20220706211304 83 94 4.0 7.0 0.00 0.00 0.00 44 1017.0
20220706205304 83 4 2.0 7.0 0.00 0.00 0.00 47 1017.7
20220706204804 82 88 5.0 12.0 0.00 0.00 0.00 47 1017.6
20220706203804 83 44 3.0 12.0 0.00 0.00 0.00 47 1017.7
20220706201804 86 79 3.0 6.0 0.00 0.00 0.00 45 1017.5
20220706201304 84 112 4.0 12.0 0.00 0.00 0.00 46 1017.5
20220706200804 83 111 3.0 8.0 0.00 0.00 0.00 46 1017.6
20220706200303 85 66 2.0 12.0 0.00 0.00 0.00 46 1017.8
20220706194304 81 158 2.0 6.0 0.00 0.00 0.00 49 1017.9
20220706193804 81 109 1.0 6.0 0.00 0.00 0.00 49 1017.7
20220706193303 81 157 2.0 7.0 0.00 0.00 0.00 47 1018.1
20220706190303 83 97 1.0 5.0 0.00 0.00 0.00 46 1018.1
20220706185804 82 85 2.0 9.0 0.00 0.00 0.00 47 1018.3
20220706185304 84 341 3.0 7.0 0.00 0.00 0.00 45 1018.3
20220706181304 82 328 3.0 7.0 0.00 0.00 0.00 49 1018.5
20220706180803 82 70 4.0 8.0 0.00 0.00 0.00 50 1018.5
20220706175804 80 127 2.0 12.0 0.00 0.00 0.00 54 1019.1
20220706175304 80 13 2.0 5.0 0.00 0.00 0.00 53 1019.1
20220706171804 79 131 2.0 3.0 0.00 0.00 0.00 54 1019.3
20220706170803 78 137 3.0 7.0 0.00 0.00 0.00 56 1019.4
20220706165803 77 8 2.0 6.0 0.00 0.00 0.00 57 1019.4
20220706164303 76 341 2.0 6.0 0.00 0.00 0.00 60 1019.4
20220706163304 76 349 3.0 5.0 0.00 0.00 0.00 64 1019.5
20220706160304 73 60 1.0 6.0 0.00 0.00 0.00 68 1019.8